Flag for Germany Weather past 2 weeks in Gladbeck, North Rhine-Westphalia, Germany

Now
67 °F

Scattered clouds.


Feels Like: 67 °F
Forecast: 60 / 77 °F
Wind: 5 mph from Southeast

Location: Duesseldorf

Current Time: Aug 3, 2015 at 6:51:50 AM

Latest Report: Aug 3, 2015 at 6:00 AM


Visibility: 25 mi

Pressure: 29.98 "Hg

Humidity: 56%

Dew point: 50 °F

Location of GladbeckLocation

Historic Weather in Gladbeck — Graph

°F

Gladbeck temperature yesterday

Maximum temperature yesterday: 81 °F (at 5:00 PM)
Minimum temperature yesterday: 50 °F (at 4:00 AM)
Average temperature yesterday: 71 °F

Past Weeks' High & Low Weather Summary

 TemperatureHumidityPressure
High81 °F (Aug 2, 5:00 PM)98% (Jul 31, 4:00 AM)30.16 "Hg (Jul 31, 4:00 AM)
Low46 °F (Jul 31, 4:00 AM)26% (Aug 2, 5:00 PM)29.50 "Hg (Jul 25, 7:00 AM)
Average65 °F67%29.89 "Hg
* Reported Jul 19 4:00 AM — Aug 3 4:00 AM, Gladbeck, Weather by CustomWeather, © 2015

Note: Actual official high and low records may vary slightly from our data, if they occured in-between our weather recording intervals... More about our weather records

Advertising

Gladbeck weather history for previous 24 hours

 ConditionsComfort  
Time TempWeatherWind HumidityBarometerVisibility
4:00 AM
Mon, Aug 3
64 °FPassing clouds.3 mph68%30.00 "Hg25 mi
3:00 AM59 °FPassing clouds.2 mph79%30.02 "Hg25 mi
2:00 AM60 °FPassing clouds.1 mph73%30.02 "Hg25 mi
1:00 AM64 °FPassing clouds.1 mph64%30.03 "Hg25 mi
10:00 PM
Sun, Aug 2
72 °FPassing clouds.3 mph44%30.04 "Hg25 mi
9:00 PM75 °FPartly sunny.3 mph40%30.03 "Hg25 mi
8:00 PM80 °FPartly sunny.3 mph33%30.04 "Hg25 mi
7:00 PM81 °FPartly sunny.2 mph31%30.06 "Hg25 mi
6:00 PM81 °FOvercast.2 mph29%30.07 "Hg25 mi
5:00 PM81 °FOvercast.2 mph26%30.08 "Hg28 mi
4:00 PM79 °FPartly sunny.2 mph28%30.09 "Hg28 mi
3:00 PM79 °FScattered clouds.3 mph29%30.11 "Hg25 mi
2:00 PM77 °FScattered clouds.2 mph32%30.12 "Hg25 mi
1:00 PM76 °FPartly sunny.2 mph33%30.14 "Hg25 mi
12:00 PM74 °FPartly sunny.2 mph36%30.15 "Hg25 mi
11:00 AM71 °FPartly sunny.2 mph40%30.15 "Hg25 mi
10:00 AM70 °FScattered clouds.1 mph43%30.14 "Hg22 mi
9:00 AM66 °FPassing clouds.1 mph58%30.14 "Hg19 mi
8:00 AM57 °FPassing clouds.1 mph84%30.13 "Hg16 mi
7:00 AM52 °FPassing clouds.1 mph90%30.12 "Hg19 mi
Weather by CustomWeather, © 2015

See weather overviewHow to use our weather pages